When you browse on this site, cookies collect data to enhance your experience and personalize the content and advertising you see.
Visit our Privacy Policy to learn more. By continuing to use the site, you agree to this use of cookies and data.

Hourly Weather Batina

Today, 6 July, Monday

Time Temperature Precipitation Wind Pressure Humidity
00:00 +21°C° 0 mm 1 mps 672 mmHg 52%
01:00 +20°C° 0 mm 1 mps 671 mmHg 55%
02:00 +19°C° 0 mm 1 mps 671 mmHg 58%
03:00 +19°C° 0 mm 1 mps 670 mmHg 60%
04:00 +20°C° 0 mm 1 mps 670 mmHg 56%
05:00 +21°C° 0 mm 1 mps 671 mmHg 51%
06:00 +22°C° 0 mm 1 mps 671 mmHg 47%
07:00 +23°C° 0 mm 2 mps 672 mmHg 39%
08:00 +25°C° 0 mm 2 mps 672 mmHg 31%
09:00 +26°C° 0 mm 3 mps 673 mmHg 23%
10:00 +27°C° 0 mm 4 mps 673 mmHg 24%
11:00 +28°C° 0 mm 4 mps 673 mmHg 24%
12:00 +29°C° 0 mm 5 mps 673 mmHg 25%
13:00 +29°C° 0 mm 6 mps 672 mmHg 27%
14:00 +29°C° 0 mm 6 mps 672 mmHg 28%
15:00 +30°C° 0 mm 7 mps 672 mmHg 29%
16:00 +28°C° 0 mm 7 mps 671 mmHg 33%
17:00 +27°C° 0 mm 7 mps 671 mmHg 37%
18:00 +24°C° 0 mm 7 mps 671 mmHg 41%
19:00 +23°C° 0 mm 6 mps 671 mmHg 47%
20:00 +22°C° 0 mm 5 mps 671 mmHg 52%
21:00 +20°C° 0 mm 4 mps 671 mmHg 57%
22:00 +20°C° 0 mm 4 mps 671 mmHg 58%
23:00 +19°C° 0 mm 4 mps 671 mmHg 60%

Tomorrow, 7 July, Tuesday

Time Temperature Precipitation Wind Pressure Humidity
00:00 +19°C° 0 mm 4 mps 671 mmHg 61%
01:00 +18°C° 0 mm 4 mps 670 mmHg 62%
02:00 +18°C° 0 mm 4 mps 670 mmHg 62%
03:00 +17°C° 0 mm 3 mps 670 mmHg 63%
04:00 +18°C° 0 mm 3 mps 670 mmHg 59%
05:00 +19°C° 0 mm 3 mps 671 mmHg 56%
06:00 +19°C° 0 mm 3 mps 671 mmHg 52%
07:00 +21°C° 0 mm 3 mps 672 mmHg 47%
08:00 +22°C° 0 mm 4 mps 672 mmHg 41%
09:00 +25°C° 0 mm 4 mps 673 mmHg 35%
10:00 +26°C° 0 mm 4 mps 673 mmHg 33%
11:00 +28°C° 0 mm 4 mps 673 mmHg 31%
12:00 +29°C° 0 mm 4 mps 674 mmHg 29%
13:00 +30°C° 0 mm 5 mps 673 mmHg 28%
14:00 +30°C° 0 mm 5 mps 673 mmHg 27%
15:00 +32°C° 0 mm 5 mps 673 mmHg 25%
16:00 +30°C° 0 mm 5 mps 673 mmHg 27%
17:00 +30°C° 0 mm 5 mps 673 mmHg 28%
18:00 +29°C° 0 mm 5 mps 673 mmHg 30%
19:00 +27°C° 0 mm 4 mps 673 mmHg 37%
20:00 +26°C° 0 mm 3 mps 673 mmHg 44%
21:00 +24°C° 0 mm 2 mps 672 mmHg 51%
22:00 +23°C° 0 mm 1 mps 672 mmHg 53%
23:00 +22°C° 0 mm 1 mps 672 mmHg 55%

Day after tomorrow, 8 July, Wednesday

Time Temperature Precipitation Wind Pressure Humidity
00:00 +20°C° 0 mm 0 mps 672 mmHg 57%
01:00 +21°C° 0 mm 1 mps 672 mmHg 56%
02:00 +21°C° 0 mm 1 mps 672 mmHg 54%
03:00 +21°C° 0 mm 1 mps 671 mmHg 52%
04:00 +22°C° 0 mm 1 mps 672 mmHg 48%
05:00 +24°C° 0 mm 1 mps 673 mmHg 44%
06:00 +25°C° 0 mm 2 mps 673 mmHg 40%
07:00 +26°C° 0 mm 2 mps 674 mmHg 36%
08:00 +28°C° 0 mm 3 mps 674 mmHg 32%
09:00 +29°C° 0 mm 4 mps 675 mmHg 28%
10:00 +32°C° 0 mm 4 mps 675 mmHg 25%
11:00 +33°C° 0 mm 4 mps 675 mmHg 22%
12:00 +34°C° 0 mm 5 mps 675 mmHg 19%
13:00 +35°C° 0 mm 5 mps 675 mmHg 18%
14:00 +35°C° 0 mm 6 mps 675 mmHg 17%
15:00 +36°C° 0 mm 6 mps 674 mmHg 16%
16:00 +35°C° 0 mm 6 mps 674 mmHg 17%
17:00 +34°C° 0 mm 6 mps 674 mmHg 18%
18:00 +32°C° 0 mm 7 mps 674 mmHg 19%
19:00 +29°C° 0 mm 5 mps 674 mmHg 23%
20:00 +27°C° 0 mm 3 mps 673 mmHg 26%
21:00 +25°C° 0 mm 2 mps 673 mmHg 30%
22:00 +25°C° 0 mm 2 mps 673 mmHg 32%
23:00 +24°C° 0 mm 1 mps 673 mmHg 34%

9 July, Thursday

Time Temperature Precipitation Wind Pressure Humidity
00:00 +23°C° 0 mm 1 mps 673 mmHg 36%
01:00 +23°C° 0 mm 1 mps 673 mmHg 37%
02:00 +22°C° 0 mm 1 mps 672 mmHg 38%
03:00 +20°C° 0 mm 0 mps 672 mmHg 38%
04:00 +21°C° 0 mm 0 mps 673 mmHg 34%
05:00 +23°C° 0 mm 0 mps 673 mmHg 31%
06:00 +24°C° 0 mm 0 mps 674 mmHg 27%
07:00 +28°C° 0 mm 1 mps 674 mmHg 24%
08:00 +30°C° 0 mm 1 mps 675 mmHg 21%
09:00 +31°C° 0 mm 1 mps 675 mmHg 18%
10:00 +32°C° 0 mm 2 mps 675 mmHg 15%
11:00 +35°C° 0 mm 3 mps 675 mmHg 13%
12:00 +36°C° 0 mm 3 mps 675 mmHg 11%
13:00 +36°C° 0 mm 4 mps 675 mmHg 11%
14:00 +36°C° 0 mm 4 mps 674 mmHg 11%
15:00 +37°C° 0 mm 5 mps 674 mmHg 12%
16:00 +36°C° 0 mm 5 mps 674 mmHg 13%
17:00 +35°C° 0 mm 5 mps 674 mmHg 14%
18:00 +34°C° 0 mm 6 mps 673 mmHg 15%
19:00 +32°C° 0 mm 4 mps 673 mmHg 21%
20:00 +29°C° 0 mm 3 mps 673 mmHg 28%
21:00 +26°C° 0 mm 2 mps 673 mmHg 34%
22:00 +26°C° 0 mm 2 mps 673 mmHg 35%
23:00 +25°C° 0 mm 2 mps 672 mmHg 36%

10 July, Friday

Time Temperature Precipitation Wind Pressure Humidity
00:00 +24°C° 0 mm 2 mps 672 mmHg 37%
01:00 +24°C° 0 mm 1 mps 672 mmHg 37%
02:00 +23°C° 0 mm 1 mps 671 mmHg 37%
03:00 +20°C° 0 mm 0 mps 671 mmHg 36%
04:00 +24°C° 0 mm 1 mps 671 mmHg 33%
05:00 +26°C° 0 mm 1 mps 672 mmHg 30%
06:00 +27°C° 0 mm 2 mps 672 mmHg 27%
07:00 +29°C° 0 mm 2 mps 673 mmHg 25%
08:00 +31°C° 0 mm 3 mps 673 mmHg 23%
09:00 +33°C° 0 mm 3 mps 674 mmHg 21%
10:00 +34°C° 0 mm 4 mps 674 mmHg 19%
11:00 +35°C° 0 mm 4 mps 674 mmHg 17%
12:00 +36°C° 0 mm 4 mps 674 mmHg 16%
13:00 +37°C° 0 mm 4 mps 674 mmHg 15%
14:00 +37°C° 0 mm 5 mps 673 mmHg 14%
15:00 +37°C° 0 mm 5 mps 673 mmHg 13%
16:00 +36°C° 0 mm 6 mps 673 mmHg 14%
17:00 +35°C° 0 mm 7 mps 673 mmHg 15%
18:00 +34°C° 0 mm 8 mps 673 mmHg 17%
19:00 +32°C° 0 mm 6 mps 673 mmHg 20%
20:00 +29°C° 0 mm 4 mps 673 mmHg 23%
21:00 +28°C° 0 mm 2 mps 673 mmHg 26%
22:00 +27°C° 0 mm 2 mps 673 mmHg 28%
23:00 +26°C° 0 mm 2 mps 672 mmHg 30%

11 July, Saturday

Time Temperature Precipitation Wind Pressure Humidity
00:00 +25°C° 0 mm 3 mps 672 mmHg 33%
01:00 +25°C° 0 mm 2 mps 672 mmHg 31%
02:00 +25°C° 0 mm 2 mps 671 mmHg 30%
03:00 +24°C° 0 mm 2 mps 671 mmHg 29%
04:00 +25°C° 0 mm 2 mps 672 mmHg 26%
05:00 +26°C° 0 mm 2 mps 672 mmHg 24%
06:00 +28°C° 0 mm 2 mps 673 mmHg 21%
07:00 +29°C° 0 mm 1 mps 673 mmHg 20%
08:00 +30°C° 0 mm 1 mps 674 mmHg 19%
09:00 +32°C° 0 mm 1 mps 674 mmHg 19%
10:00 +34°C° 0 mm 2 mps 674 mmHg 18%
11:00 +35°C° 0 mm 3 mps 674 mmHg 17%
12:00 +36°C° 0 mm 3 mps 674 mmHg 16%
13:00 +35°C° 0.1 mm 4 mps 674 mmHg 18%
14:00 +34°C° 0.1 mm 4 mps 673 mmHg 20%
15:00 +34°C° 0.1 mm 4 mps 673 mmHg 21%
16:00 +34°C° 0 mm 3 mps 673 mmHg 21%
17:00 +34°C° 0 mm 3 mps 672 mmHg 21%
18:00 +34°C° 0 mm 3 mps 672 mmHg 21%
19:00 +31°C° 0 mm 3 mps 672 mmHg 24%
20:00 +29°C° 0 mm 2 mps 672 mmHg 27%
21:00 +27°C° 0 mm 1 mps 672 mmHg 30%
22:00 +27°C° 0 mm 1 mps 672 mmHg 31%
23:00 +27°C° 0 mm 1 mps 672 mmHg 31%
Show more